Home   Weather   41°42'N, 81°18'W   Past weeks
Flag for USA

Past Weather in 41°42'N, 81°18'W, USA — Yesterday and Last 2 Weeks

Now
40 °F

Light rain. Fog.


Feels Like: 32 °F
Forecast: 43 / 33 °F
Wind: 15 mph from South

Location: Cleveland-Hopkins International Airport

Current Time: Feb 20, 2019 at 7:19:25 pm

Latest Report: Feb 20, 2019 at 6:06 pm


Visibility: 4 mi

Pressure: 29.81 "Hg

Humidity: 93%

Dew Point: 38 °F

Location of 41°42'N, 81°18'WLocation

Past Weather in 41°42'N, 81°18'W — Graph

°F

41°42'N, 81°18'W Temperature Yesterday

Maximum temperature yesterday: 33 °F (at 2:51 pm)
Minimum temperature yesterday: 12 °F (at 5:51 am)
Average temperature yesterday: 22 °F

High & Low Weather Summary for the Past Weeks

 TemperatureHumidityPressure
High60 °F (Feb 7, 7:51 pm)100% (Feb 6, 8:51 pm)30.91 "Hg (Feb 6, 8:51 pm)
Low12 °F (Feb 19, 5:51 am)44% (Feb 14, 10:51 pm)29.49 "Hg (Feb 12, 3:17 pm)
Average31 °F77%30.10 "Hg
* Reported Feb 5 6:51 pm — Feb 20 6:06 pm, 41°42'N, 81°18'W. Weather by CustomWeather, © 2019

Note: Actual official high and low records may vary slightly from our data, if they occured in-between our weather recording intervals... More about our weather records

Advertising

41°42'N, 81°18'W Weather History for the Previous 24 Hours

Scroll right to see more
 ConditionsComfort  
Time TempWeatherWind HumidityBarometerVisibility
6:06 pm
Wed, Feb 20
40 °FLight rain. Fog.15 mph93%29.81 "Hg4 mi
5:17 pm40 °FLight rain. Fog.17 mph89%29.82 "Hg6 mi
4:51 pm39 °FLight rain. Fog.14 mph93%29.87 "Hg2 mi
4:38 pm39 °FLight rain. Fog.16 mph93%29.86 "Hg2 mi
4:14 pm40 °FMore clouds than sun.14 mph86%29.87 "Hg10 mi
3:51 pm40 °FOvercast.16 mph86%29.88 "Hg10 mi
2:51 pm38 °FOvercast.10 mph86%29.91 "Hg10 mi
1:51 pm37 °FOvercast.17 mph82%29.98 "Hg10 mi
12:51 pm35 °FOvercast.15 mph85%30.03 "Hg10 mi
11:51 am33 °FFog.14 mph88%30.09 "Hg5 mi
10:51 am33 °FFog.14 mph82%30.13 "Hg6 mi
10:24 am33 °FFog.9 mph82%30.15 "Hg6 mi
9:51 am32 °FIce fog.7 mph88%30.19 "Hg6 mi
8:59 am31 °FLight snow. More clouds than sun.8 mph85%30.17 "Hg6 mi
8:43 am30 °FLight snow. Ice fog.12 mph85%30.14 "Hg4 mi
8:28 am29 °FLight snow. Ice fog.12 mph89%30.18 "Hg1 mi
8:13 am28 °FLight snow. Ice fog.8 mph89%30.20 "Hg1 mi
7:51 am28 °FSnow. Ice fog.8 mph89%30.27 "Hg1 mi
7:34 am28 °FLight snow. Ice fog.8 mph85%30.26 "Hg1 mi
6:51 am28 °FLight snow. Ice fog.9 mph72%30.29 "Hg1 mi
5:51 am30 °FOvercast.8 mph51%30.32 "Hg10 mi
4:51 am29 °FOvercast.6 mph58%30.35 "Hg10 mi
3:51 am29 °FOvercast.7 mph58%30.37 "Hg10 mi
2:51 am29 °FOvercast.8 mph61%30.42 "Hg10 mi
1:51 am28 °FOvercast.7 mph64%30.47 "Hg10 mi
12:51 am28 °FOvercast.6 mph64%30.48 "Hg10 mi
11:51 pm
Tue, Feb 19
28 °FOvercast.5 mph64%30.50 "Hg10 mi
10:51 pm27 °FOvercast.6 mph66%30.52 "Hg10 mi
9:51 pm27 °FOvercast.5 mph63%30.54 "Hg10 mi
8:51 pm27 °FHigh level clouds.6 mph63%30.56 "Hg10 mi
7:51 pm26 °FHigh level clouds.7 mph66%30.61 "Hg10 mi
Weather by CustomWeather, © 2019

See weather overview